GW7377 Weather Reports


time (UTC)temp
C
wind
direction
speed
KPH
gust
KPH
rain 1hr
cm
rain 24hr
cm
rain mn
cm
humidity
%
barometer
mb
20260507032247 22 330 0.0 0.0 0.00 0.00 0.00 80 1013.8
20260507031743 22 347 0.0 0.0 0.00 0.00 0.00 80 1013.9
20260507031241 22 341 0.0 0.0 0.00 0.00 0.00 80 1014.1
20260507030737 22 299 0.0 0.0 0.00 0.00 0.00 79 1013.9
20260507030235 22 340 0.0 0.0 0.00 0.00 0.00 79 1013.7
20260507025732 22 333 0.0 0.0 0.00 0.00 0.00 79 1013.7
20260507025229 22 342 0.0 0.0 0.00 0.00 0.00 79 1014.1
20260507024727 22 352 0.0 0.0 0.00 0.00 0.00 79 1013.7
20260507024224 22 344 0.0 0.0 0.00 0.00 0.00 79 1013.8
20260507023720 22 347 0.0 0.0 0.00 0.00 0.00 78 1013.7
20260507023217 23 282 0.0 0.0 0.00 0.00 0.00 78 1013.8
20260507022714 23 285 0.0 0.0 0.00 0.00 0.00 78 1013.8
20260507022210 23 72 0.0 0.0 0.00 0.00 0.00 77 1013.9
20260507021706 23 353 0.0 0.0 0.00 0.00 0.00 77 1013.9
20260507021201 23 354 0.0 0.0 0.00 0.00 0.00 76 1013.7
20260507020701 23 334 0.0 0.0 0.00 0.00 0.00 76 1013.7
20260507020156 23 323 0.0 0.0 0.00 0.00 0.00 76 1013.6
20260507015654 23 347 0.0 0.0 0.00 0.00 0.00 75 1013.7
20260507015151 23 320 0.0 0.0 0.00 0.00 0.00 75 1013.6
20260507014648 24 319 0.0 0.0 0.00 0.00 0.00 75 1013.7
20260507014144 24 243 0.0 0.0 0.00 0.00 0.00 74 1013.6
20260507013641 24 279 0.0 0.0 0.00 0.00 0.00 74 1013.5
20260507013138 24 305 0.0 0.0 0.00 0.00 0.00 73 1013.4
20260507012636 24 336 0.0 0.0 0.00 0.00 0.00 73 1013.8
20260507012130 24 245 0.0 0.0 0.00 0.00 0.00 74 1013.6
20260507011629 24 204 0.0 0.0 0.00 0.00 0.00 75 1013.6
20260507011125 24 326 0.0 0.0 0.00 0.00 0.00 76 1013.6
20260507010620 24 359 0.0 0.0 0.00 0.00 0.00 78 1013.6
20260507010116 24 197 0.0 0.0 0.00 0.00 0.00 78 1013.5
20260507005614 24 122 0.0 0.0 0.00 0.00 0.00 79 1013.4
20260507005109 24 30 0.0 0.0 0.00 0.00 0.00 79 1013.4
20260507004607 24 110 0.0 0.0 0.00 0.00 0.00 79 1013.4
20260507004104 24 86 0.0 0.0 0.00 0.00 0.00 79 1013.5
20260507003600 25 239 0.0 0.0 0.00 0.00 0.00 79 1013.4
20260507003055 25 52 0.0 1.6 0.00 0.00 0.00 79 1013.1
20260507002552 25 226 0.0 0.0 0.00 0.00 0.00 78 1013.2
20260507002048 25 249 0.0 0.0 0.00 0.00 0.00 79 1012.8
20260507001544 25 332 0.0 0.0 0.00 0.00 0.00 78 1012.9
20260507001042 25 72 0.0 0.0 0.00 0.00 0.00 77 1012.9
20260507000538 25 330 0.0 0.0 0.00 0.00 0.00 77 1017.2
20260507000033 25 299 0.0 0.0 0.00 0.00 0.00 76 1017.3
20260506235532 25 88 0.0 0.0 0.00 0.00 0.00 76 1017.3
20260506235027 25 83 0.0 0.0 0.00 0.00 0.00 75 1017.3
20260506234525 25 88 0.0 0.0 0.00 0.00 0.00 74 1017.1
20260506234022 26 76 0.0 0.0 0.00 0.00 0.00 74 1016.9
20260506233518 26 59 0.0 1.6 0.00 0.00 0.00 73 1017.0
20260506233015 26 18 0.0 0.0 0.00 0.00 0.00 72 1016.9
20260506232511 26 217 0.0 1.6 0.00 0.00 0.00 71 1017.1
20260506232007 26 6 0.0 0.0 0.00 0.00 0.00 70 1017.4
20260506231505 26 28 1.6 3.2 0.00 0.00 0.00 69 1017.2
20260506231002 26 135 0.0 0.0 0.00 0.00 0.00 70 1017.2
20260506230458 27 312 0.0 0.0 0.00 0.00 0.00 69 1017.2
20260506225955 27 127 1.6 4.8 0.00 0.00 0.00 68 1017.2
20260506225452 27 221 1.6 3.2 0.00 0.00 0.00 69 1017.6
20260506224949 27 209 0.0 1.6 0.00 0.00 0.00 70 1017.3
20260506224446 27 86 3.2 4.8 0.00 0.00 0.00 70 1017.5
20260506223942 27 174 1.6 1.6 0.00 0.00 0.00 70 1017.4
20260506223438 28 244 0.0 1.6 0.00 0.00 0.00 69 1017.5
20260506222935 28 197 1.6 3.2 0.00 0.00 0.00 67 1017.4
20260506222431 28 35 3.2 12.9 0.00 0.00 0.00 67 1017.2
20260506221928 28 29 0.0 0.0 0.00 0.00 0.00 65 1017.4
20260506221425 29 132 0.0 1.6 0.00 0.00 0.00 66 1017.2
20260506220924 30 48 3.2 12.9 0.00 0.00 0.00 64 1017.2
20260506220419 29 303 0.0 0.0 0.00 0.00 0.00 65 1017.2
20260506215916 29 154 0.0 3.2 0.00 0.00 0.00 66 1017.3
20260506215412 29 203 1.6 1.6 0.00 0.00 0.00 66 1017.2
20260506214908 29 40 0.0 0.0 0.00 0.00 0.00 65 1017.2
20260506214405 29 108 1.6 1.6 0.00 0.00 0.00 66 1017.2
20260506213903 28 312 1.6 6.4 0.00 0.00 0.00 68 1017.1
20260506213400 29 166 1.6 3.2 0.00 0.00 0.00 65 1017.2
20260506212857 29 96 4.8 9.7 0.00 0.00 0.00 66 1017.4
20260506212353 29 24 3.2 3.2 0.00 0.00 0.00 66 1017.2
20260506211848 30 330 0.0 3.2 0.00 0.00 0.00 65 1017.5
20260506211344 30 11 0.0 1.6 0.00 0.00 0.00 64 1017.5
20260506210842 30 12 0.0 1.6 0.00 0.00 0.00 63 1017.5
20260506210338 30 309 0.0 0.0 0.00 0.00 0.00 65 1017.6
20260506205836 29 315 1.6 3.2 0.00 0.00 0.00 68 1017.4
20260506205331 30 63 1.6 3.2 0.00 0.00 0.00 64 1017.3
20260506204828 30 23 1.6 4.8 0.00 0.00 0.00 65 1017.3
20260506204326 30 195 0.0 0.0 0.00 0.00 0.00 66 1017.4
20260506203823 30 198 0.0 1.6 0.00 0.00 0.00 66 1017.4
20260506203320 31 300 0.0 1.6 0.00 0.00 0.00 66 1017.4
20260506202817 30 70 1.6 3.2 0.00 0.00 0.00 66 1017.6
20260506202314 30 308 0.0 0.0 0.00 0.00 0.00 66 1017.8
20260506201810 30 246 0.0 0.0 0.00 0.00 0.00 68 1017.6
20260506201308 31 200 1.6 3.2 0.00 0.00 0.00 65 1017.8
20260506200805 31 62 1.6 3.2 0.00 0.00 0.00 65 1017.9
20260506200301 31 251 0.0 0.0 0.00 0.00 0.00 66 1018.0
20260506195757 31 159 0.0 0.0 0.00 0.00 0.00 66 1018.0
20260506195254 31 283 3.2 4.8 0.00 0.00 0.00 66 1018.0
20260506194751 31 135 0.0 0.0 0.00 0.00 0.00 66 1017.9
20260506194248 31 174 1.6 3.2 0.00 0.00 0.00 65 1018.1
20260506193746 31 6 0.0 0.0 0.00 0.00 0.00 67 1018.3
20260506193242 31 343 0.0 0.0 0.00 0.00 0.00 67 1018.3
20260506192738 31 307 0.0 0.0 0.00 0.00 0.00 66 1018.3
20260506192235 31 94 3.2 4.8 0.00 0.00 0.00 66 1018.3
20260506191732 31 21 0.0 0.0 0.00 0.00 0.00 65 1018.4
20260506191228 31 57 1.6 4.8 0.00 0.00 0.00 65 1018.6
20260506190726 31 245 0.0 1.6 0.00 0.00 0.00 64 1018.7
20260506190222 30 71 0.0 0.0 0.00 0.00 0.00 66 1018.5
20260506185719 31 20 0.0 0.0 0.00 0.00 0.00 65 1018.4
20260506185215 31 306 0.0 0.0 0.00 0.00 0.00 65 1018.6
20260506184713 31 54 0.0 0.0 0.00 0.00 0.00 65 1018.6
20260506184210 31 105 0.0 1.6 0.00 0.00 0.00 64 1018.5
20260506183707 31 57 0.0 0.0 0.00 0.00 0.00 64 1018.6
20260506183203 31 262 3.2 6.4 0.00 0.00 0.00 64 1018.7
20260506182700 32 274 0.0 0.0 0.00 0.00 0.00 63 1018.7
20260506182157 32 332 0.0 0.0 0.00 0.00 0.00 63 1018.8
20260506181655 32 226 0.0 1.6 0.00 0.00 0.00 63 1019.0
20260506181152 32 14 0.0 0.0 0.00 0.00 0.00 63 1019.0
20260506180649 32 8 0.0 0.0 0.00 0.00 0.00 57 1019.0
20260506180145 32 172 0.0 0.0 0.00 0.00 0.00 57 1018.9
20260506175642 32 299 1.6 4.8 0.00 0.00 0.00 55 1019.1
20260506175139 31 48 0.0 0.0 0.00 0.00 0.00 55 1019.1
20260506174637 31 325 0.0 0.0 0.00 0.00 0.00 55 1019.1
20260506174134 31 130 0.0 0.0 0.00 0.00 0.00 58 1019.1
20260506173631 31 245 0.0 1.6 0.00 0.00 0.00 57 1019.5
20260506173128 31 336 0.0 0.0 0.00 0.00 0.00 57 1019.4
20260506172625 31 286 0.0 1.6 0.00 0.00 0.00 58 1019.5
20260506172121 31 277 0.0 0.0 0.00 0.00 0.00 59 1019.6
20260506171619 31 140 0.0 0.0 0.00 0.00 0.00 58 1019.7
20260506171116 31 156 1.6 4.8 0.00 0.00 0.00 58 1019.6
20260506170615 31 260 0.0 3.2 0.00 0.00 0.00 56 1019.6
20260506170111 31 115 0.0 1.6 0.00 0.00 0.00 59 1019.9
20260506165609 31 350 0.0 0.0 0.00 0.00 0.00 60 1019.8
20260506165105 31 206 3.2 6.4 0.00 0.00 0.00 56 1019.7
20260506164603 31 161 0.0 0.0 0.00 0.00 0.00 60 1019.8
20260506164100 30 243 0.0 0.0 0.00 0.00 0.00 57 1019.6
20260506163555 30 23 6.4 11.3 0.00 0.00 0.00 56 1020.1
20260506163051 30 282 1.6 1.6 0.00 0.00 0.00 57 1019.9
20260506162547 30 218 1.6 3.2 0.00 0.00 0.00 60 1020.0
20260506162045 30 165 0.0 0.0 0.00 0.00 0.00 59 1020.0
20260506161542 30 227 0.0 0.0 0.00 0.00 0.00 62 1020.1
20260506161039 30 240 3.2 4.8 0.00 0.00 0.00 59 1020.1
20260506160537 30 76 0.0 0.0 0.00 0.00 0.00 61 1020.4
20260506160034 30 343 0.0 1.6 0.00 0.00 0.00 60 1020.1
20260506155532 30 263 0.0 0.0 0.00 0.00 0.00 60 1020.0
20260506153703 30 153 1.6 4.8 0.00 0.00 0.00 62 1020.1
20260506153201 29 292 1.6 3.2 0.00 0.00 0.00 61 1020.1
20260506152657 30 311 3.2 6.4 0.00 0.00 0.00 63 1020.2
20260506152155 29 238 0.0 3.2 0.00 0.00 0.00 65 1020.2
20260506151654 29 356 0.0 0.0 0.00 0.00 0.00 62 1020.3
20260506151150 28 270 0.0 0.0 0.00 0.00 0.00 64 1020.2
20260506150647 28 212 0.0 0.0 0.00 0.00 0.00 65 1020.2
20260506150144 28 272 0.0 0.0 0.00 0.00 0.00 66 1020.2
20260506145641 28 277 0.0 0.0 0.00 0.00 0.00 66 1020.0
20260506145137 28 266 0.0 0.0 0.00 0.00 0.00 67 1019.9
20260506144635 28 254 0.0 0.0 0.00 0.00 0.00 66 1019.9
20260506144131 27 310 0.0 0.0 0.00 0.00 0.00 66 1019.9
20260506143629 27 42 0.0 0.0 0.00 0.00 0.00 70 1019.9
20260506143127 28 206 0.0 0.0 0.00 0.00 0.00 68 1020.1
20260506142625 27 208 1.6 3.2 0.00 0.00 0.00 70 1019.9
20260506142123 27 54 0.0 0.0 0.00 0.00 0.00 72 1020.0
20260506141620 27 129 1.6 3.2 0.00 0.00 0.00 71 1019.9
20260506141119 26 77 0.0 0.0 0.00 0.00 0.00 72 1019.9
20260506140616 26 282 0.0 0.0 0.00 0.00 0.00 73 1020.0
20260506140113 26 168 0.0 0.0 0.00 0.00 0.00 74 1020.0
20260506135609 26 348 0.0 1.6 0.00 0.00 0.00 74 1020.0
20260506135106 26 77 0.0 0.0 0.00 0.00 0.00 74 1020.1
20260506134602 26 348 0.0 0.0 0.00 0.00 0.00 74 1020.1
20260506134058 26 44 0.0 0.0 0.00 0.00 0.00 76 1020.1
20260506133555 26 201 0.0 0.0 0.00 0.00 0.00 76 1020.2
20260506133053 25 345 0.0 0.0 0.00 0.00 0.00 74 1020.1
20260506132550 25 100 0.0 0.0 0.00 0.00 0.00 76 1020.4
20260506132047 25 17 0.0 3.2 0.00 0.00 0.00 76 1019.9
20260506131544 25 183 0.0 0.0 0.00 0.00 0.00 77 1019.9
20260506131040 25 297 0.0 0.0 0.00 0.00 0.00 77 1020.0
20260506130537 24 237 0.0 0.0 0.00 0.00 0.00 77 1019.9
20260506130035 23 232 0.0 0.0 0.00 0.00 0.00 78 1019.8
20260506125533 23 188 0.0 0.0 0.00 0.00 0.00 80 1019.7
20260506125031 23 100 0.0 0.0 0.00 0.00 0.00 80 1019.9
20260506124528 23 234 0.0 0.0 0.00 0.00 0.00 79 1019.9
20260506124026 23 248 0.0 0.0 0.00 0.00 0.00 79 1019.8
20260506123523 23 107 0.0 0.0 0.00 0.00 0.00 81 1019.7
20260506123021 22 44 0.0 0.0 0.00 0.00 0.00 82 1019.5
20260506122518 22 21 0.0 0.0 0.00 0.00 0.00 82 1019.5
20260506122016 21 154 0.0 0.0 0.00 0.00 0.00 84 1019.5
20260506121513 21 250 0.0 0.0 0.00 0.00 0.00 85 1019.5
20260506121009 20 38 0.0 0.0 0.00 0.00 0.00 88 1019.4
20260506120508 20 356 0.0 0.0 0.00 0.00 0.00 89 1019.6
20260506120005 20 329 0.0 0.0 0.00 0.00 0.00 91 1019.2
20260506115502 19 46 0.0 0.0 0.00 0.00 0.00 92 1019.2
20260506115001 18 32 0.0 0.0 0.00 0.00 0.00 93 1019.2
20260506114457 18 357 0.0 0.0 0.00 0.00 0.00 94 1019.3
20260506113956 18 6 0.0 0.0 0.00 0.00 0.00 95 1019.2
20260506113453 17 319 0.0 0.0 0.00 0.00 0.00 95 1019.1
20260506112950 17 326 0.0 0.0 0.00 0.00 0.00 95 1019.1
20260506112447 17 351 0.0 0.0 0.00 0.00 0.00 95 1019.0
20260506111944 17 359 0.0 0.0 0.00 0.00 0.00 95 1019.0
20260506111443 17 356 0.0 0.0 0.00 0.00 0.00 95 1019.0
20260506110939 17 355 0.0 0.0 0.00 0.00 0.00 95 1018.9
20260506110437 17 356 0.0 0.0 0.00 0.00 0.00 95 1018.9
20260506105933 17 359 0.0 0.0 0.00 0.00 0.00 95 1019.0
20260506105430 17 348 0.0 0.0 0.00 0.00 0.00 95 1018.9
20260506104927 17 352 0.0 0.0 0.00 0.00 0.00 95 1018.7
20260506104425 16 352 0.0 0.0 0.00 0.00 0.00 95 1018.6
20260506103923 16 354 0.0 0.0 0.00 0.00 0.00 95 1018.5
20260506103420 16 337 0.0 0.0 0.00 0.00 0.00 95 1018.5
20260506102917 16 357 0.0 0.0 0.00 0.00 0.00 95 1018.7
20260506102415 16 337 0.0 0.0 0.00 0.00 0.00 95 1018.5
20260506101912 16 348 0.0 0.0 0.00 0.00 0.00 94 1018.7
20260506101408 16 348 0.0 0.0 0.00 0.00 0.00 94 1018.5
20260506100906 16 356 0.0 0.0 0.00 0.00 0.00 94 1018.6
20260506100404 16 345 0.0 0.0 0.00 0.00 0.00 94 1018.7
20260506095901 16 355 0.0 0.0 0.00 0.00 0.00 94 1018.6
20260506095400 16 351 0.0 0.0 0.00 0.00 0.00 94 1018.7
20260506094856 16 351 0.0 0.0 0.00 0.00 0.00 93 1018.6
20260506094355 16 344 0.0 0.0 0.00 0.00 0.00 93 1018.5
20260506093852 16 349 0.0 0.0 0.00 0.00 0.00 93 1018.5
20260506093350 16 350 0.0 0.0 0.00 0.00 0.00 93 1018.5
20260506092847 16 350 0.0 0.0 0.00 0.00 0.00 93 1018.4
20260506092345 16 346 0.0 0.0 0.00 0.00 0.00 93 1018.3
20260506091841 16 351 0.0 0.0 0.00 0.00 0.00 92 1018.5
20260506091339 16 350 0.0 0.0 0.00 0.00 0.00 92 1018.4
20260506090836 16 342 0.0 0.0 0.00 0.00 0.00 92 1018.6
20260506090334 17 351 0.0 0.0 0.00 0.00 0.00 92 1018.4
20260506085830 17 354 0.0 0.0 0.00 0.00 0.00 92 1018.5
20260506085326 17 158 0.0 0.0 0.00 0.00 0.00 91 1018.4
20260506084823 17 350 0.0 0.0 0.00 0.00 0.00 91 1018.0
20260506084320 17 347 0.0 0.0 0.00 0.00 0.00 91 1018.5
20260506083817 17 346 0.0 0.0 0.00 0.00 0.00 90 1018.3
20260506083314 17 348 0.0 0.0 0.00 0.00 0.00 90 1018.5
20260506082812 17 354 0.0 0.0 0.00 0.00 0.00 90 1018.5
20260506082308 17 339 0.0 0.0 0.00 0.00 0.00 90 1018.5
20260506081805 17 348 0.0 0.0 0.00 0.00 0.00 89 1018.4
20260506081302 17 347 0.0 0.0 0.00 0.00 0.00 89 1018.3
20260506080800 17 355 0.0 0.0 0.00 0.00 0.00 90 1018.3
20260506080256 17 349 0.0 0.0 0.00 0.00 0.00 90 1018.2
20260506073240 16 4 0.0 0.0 0.00 0.00 0.00 91 1018.4
20260506072737 16 350 0.0 0.0 0.00 0.00 0.00 90 1018.5
20260506072234 16 349 0.0 0.0 0.00 0.00 0.00 90 1018.6
20260506071732 16 347 0.0 0.0 0.00 0.00 0.00 90 1018.6
20260506071230 16 354 0.0 0.0 0.00 0.00 0.00 90 1018.3
20260506070727 16 340 0.0 0.0 0.00 0.00 0.00 90 1018.4
20260506070223 16 345 0.0 0.0 0.00 0.00 0.00 91 1018.4
20260506062200 16 334 0.0 0.0 0.00 0.00 0.00 92 1018.8
20260506061656 16 334 0.0 0.0 0.00 0.00 0.00 93 1018.9
20260506061154 16 342 0.0 0.0 0.00 0.00 0.00 93 1018.8
20260506060652 16 20 0.0 0.0 0.00 0.00 0.00 93 1018.9
20260506060149 16 20 0.0 0.0 0.00 0.00 0.00 93 1019.0
20260506051121 16 20 0.0 0.0 0.00 0.00 0.00 92 1019.4
20260506050619 16 20 0.0 0.0 0.00 0.00 0.00 91 1019.6
20260506050116 16 20 0.0 0.0 0.00 0.00 0.00 91 1019.4
20260506045109 17 20 0.0 0.0 0.00 0.00 0.00 91 1019.4
20260506044607 17 20 0.0 0.0 0.00 0.00 0.00 90 1019.5
20260506044104 17 21 0.0 0.0 0.00 0.00 0.00 90 1019.4
20260506043601 17 316 0.0 0.0 0.00 0.00 0.00 91 1019.5
20260506043059 17 338 0.0 0.0 0.00 0.00 0.00 91 1019.5
20260506042558 17 330 0.0 0.0 0.00 0.00 0.00 91 1019.7
20260506042055 17 341 0.0 0.0 0.00 0.00 0.00 91 1019.7
20260506041554 17 338 0.0 0.0 0.00 0.00 0.00 90 1019.6
20260506041050 17 339 0.0 0.0 0.00 0.00 0.00 90 1019.8
20260506040548 17 343 0.0 0.0 0.00 0.00 0.00 89 1019.8
20260506040044 17 343 0.0 0.0 0.00 0.41 0.41 88 1019.7
20260506035541 17 343 0.0 0.0 0.00 0.41 0.41 87 1019.7
20260506035038 17 343 0.0 0.0 0.00 0.41 0.41 86 1019.5
20260506034535 17 341 0.0 0.0 0.00 0.41 0.41 86 1019.6
20260506034032 17 341 0.0 0.0 0.00 0.41 0.41 85 1019.5
20260506033530 18 340 0.0 0.0 0.00 0.41 0.41 85 1019.4
20260506033026 18 339 0.0 0.0 0.00 0.41 0.41 84 1019.5
20260506032524 18 313 0.0 0.0 0.00 0.41 0.41 84 1019.6